Regional Weather Roundup
Issued by NWS

Home | Current Version | Previous Version | Text Only | Print | Product List | Glossary On
Versions: 1 2 3 4 5 6 7 8 9 10 11 12 13 14 15 16 17 18 19 20 21 22 23 24 25 26 27 28 29 30 31 32 33 34 35 36 37 38 39 40 41 42 43 44 45 46 47 48 49 50
234
ASUS44 KEWX 270803
RWRTX
SOUTH TEXAS REGIONAL WEATHER ROUNDUP
NATIONAL WEATHER SERVICE AUSTIN/SAN ANTONIO TX
300 AM CDT MON MAR 27 2017

NOTE: "FAIR" INDICATED FEW OR NO CLOUDS BELOW 12,000 FEET WITH NO
SIGNIFICANT WEATHER AND/OR OBSTRUCTIONS TO VISIBILITY.

* - THESE STATIONS ARE NOT NWS OR FAA STATIONS...AND ARE NOT SUBJECT
    TO NWS AND FAA QUALITY CONTROL.

TXZ171-172-183>190-270900-
TEXAS HILL COUNTRY AND EDWARDS PLATEAU

CITY           SKY/WX    TMP DP  RH WIND       PRES   REMARKS
JUNCTION       CLEAR     66  61  84 S6        29.86S
*LLANO         MOCLDY    70  66  88 CALM      29.88S
BURNET         MOCLDY    69  65  86 S8        29.87F
*HORSESHOE BAY CLEAR     69  66  91 S6        29.85F
*KERRVILLE     CLOUDY    69  66  92 SE5       29.88S
*FREDERICKSBRG CLOUDY    69  64  83 S5        29.88S
*ROCKSPRINGS   PTCLDY    66  64  94 CALM      29.91S FOG
*BOERNE STAGE  CLOUDY    68  64  88 S6        29.87F
*CASTROVILLE   CLOUDY    72  66  83 SE8       29.84F
HONDO          CLOUDY    73  68  84 SE7       29.83S
*UVALDE        CLOUDY    69  67  94 E3        29.83R FOG
DEL RIO        CLEAR     69  65  86 NE7       29.82R
LAUGHLIN AFB   NOT AVBL
CARRIZO SPRGS  CLEAR     70  66  88 SE6       29.77S
*EAGLE PASS    SUNNY     70  63  78 E5        29.79R
$$

TXZ173-191>194-202-209-217>225-228-270900-
CENTRAL AND SOUTH CENTRAL TEXAS

CITY           SKY/WX    TMP DP  RH WIND       PRES   REMARKS
GEORGETOWN     CLEAR     70  64  83 S6        29.84F
AUSTIN/BERGSTM CLOUDY    73  67  81 S8        29.85R
AUSTIN/MABRY   CLOUDY    71  67  87 CALM      29.88R
*AUSTIN/EXEC     N/A    N/A N/A N/A MISG        N/A
*LAGO VISTA    DRZL/FOG  69  68  96 S8        29.87F VSB 1/2
SAN MARCOS     CLOUDY    72  66  83 S12       29.86S
NEW BRAUNFELS  CLOUDY    72  66  81 S12       29.84S
RANDOLPH AFB   CLOUDY    71  71 100 S8        29.84F
PT SAN ANTONIO CLOUDY    71  67  86 SE9       29.81F
SAN ANTONIO    CLOUDY    72  66  81 S10       29.84F
STINSON FIELD  CLOUDY    73  67  81 SE5       29.81F
*PLEASANTON    MOCLDY    70  67  92 SE6       29.82S
*LA GRANGE     CLOUDY    71  68  93 S7        29.83F
*GIDDINGS      CLOUDY    69  65  88 S8        29.87R
*GONZALES      CLOUDY    71  70  97 S8        29.84S
$$

TXZ163>164-176>182-195>201-210>213-226-227-235-270900-
SOUTHEAST TEXAS

CITY           SKY/WX    TMP DP  RH WIND       PRES   REMARKS
COLLEGE STN    TSTM      70  65  84 N8G24     29.91R
*BRYAN         CLOUDY    68  67  99 S13G24    29.86F
*CALDWELL      NOT AVBL
*CROCKETT      LGT RAIN  68  64  88 S12G18    29.88F
*BRENHAM       CLOUDY    72  69  90 S10G17    29.88R
HUNTSVILLE     CLOUDY    69  64  84 NW7       29.90R
CONROE         CLOUDY    68  66  93 S12       29.86F
HOUSTON BUSH   CLOUDY    72  67  84 S8        29.88F
HOUSTON HOBBY  MOCLDY    72  69  90 S7        29.88F
*HOUSTON SW AP CLOUDY    68  67  95 CALM      29.89F FOG
PEARLAND       CLOUDY    74  69  85 S6        29.89F
HOUSTON HOOKS  PTCLDY    71  68  90 S5        29.87F
ELLINGTON FLD  NOT AVBL
SUGAR LAND     CLOUDY    72  69  90 SE7       29.88F
*HOUSTON EXEC  CLEAR     68  68 100 SE8       29.89F FOG
*CLEVELAND MUN PTCLDY    66  65  96 S5        29.89F FOG
*WHARTON       MOCLDY    69  67  91 SE3       29.89F
*COLUMBUS      CLOUDY    68  67  94 SE6       29.86F
*EAGLE LAKE    CLOUDY    69  69  99 SE6       29.86F FOG
$$

TXZ214>216-236>238-270900-
THE UPPER TEXAS COAST

CITY           SKY/WX    TMP DP  RH WIND       PRES   REMARKS
*ORANGE        CLOUDY    73  70  93 S9        29.93S
PORT ARTHUR    CLOUDY    71  69  93 S8        29.90S
GALVESTON      CLOUDY    74  72  93 SE9       29.89F
ANGLETON       CLOUDY    73  71  93 S9        29.88F
*BAY CITY      CLOUDY    72  71  97 CALM      29.88S
PALACIOS       CLOUDY    72  70  93 SE6       29.86F
$$

TXZ229>234-239>247-270900-
TEXAS COASTAL BEND AND RIO GRANDE PLAINS

CITY           SKY/WX    TMP DP  RH WIND       PRES   REMARKS
VICTORIA       CLOUDY    68  66  93 SE8       29.85F FOG
*BEEVILLE      MOCLDY   N/A N/A N/A SE7       29.83F
ROCKPORT       CLEAR     72  69  90 SE7       29.84R
*PORT ARANSAS  CLEAR     71  69  96 SE6       29.83S
*PORT LAVACA   CLOUDY    69  69 100 CALM      29.86F FOG
*INGLESIDE     MOCLDY    73  70  92 E5        29.83S
CORPUS CHRISTI CLOUDY    73  70  90 SE14      29.81F
CORPUS NAS     CLOUDY   N/A N/A N/A SE13      29.81F
*ROBSTOWN      CLOUDY    72  72 100 CALM      29.82S
ALICE          PTCLDY    65  64  97 NE7       29.80F
KINGSVILLE NAS CLEAR     66  66 100 NE6       29.80S
COTULLA        CLEAR     71  67  87 SE9       29.78F
*FAITH RANCH   PTCLDY    72  68  88 VRB6      29.78R
LAREDO         CLEAR     72  68  87 E12       29.77S
$$

TXZ248>255-270900-
DEEP SOUTH TEXAS

CITY           SKY/WX    TMP DP  RH WIND       PRES   REMARKS
BROWNSVILLE    CLEAR     72  69  90 S7        29.79F
PORT ISABEL    CLEAR     74  70  87 S12       29.78F
*SOUTH PADRE   NOT AVBL
HARLINGEN      PTCLDY    72  70  93 S10       29.77F
*HEBBRONVILLE  CLEAR     68  65  90 SE5       29.80S
MCALLEN        CLEAR     73  68  84 SE12      29.76F
*WESLACO       PTCLDY    71  68  89 S7        29.76F
FALFURRIAS     CLEAR     67  65  95 NE3       29.78F
EDINBURG       CLEAR     72  68  87 SE9       29.76F
*ZAPATA        CLOUDY    72  65  81 E3        29.76S
$$

TXZ213>215-236>238-242>244-246-247-251-254-255-270900-
CMAN STATIONS

STATION/POSITION TIME  TEMP    WIND        PRES    WAVE
                       AIR SEA DIR/SP/G            HT/PER
                 (UTC) (F)     (DEG/KT/KT) (MB)    (FT/S)
SABINE PASS      0730   72 74  150/ 11/ 15 1013.8
SEA RIM ST PARK  0700   72     160/  8/ 10 1013.4
NORTH JETTY/GLS  0730      72  160/ 11/ 12   N/A
EAGLE POINT      0730   74 75  180/ 10/ 14 1012.2
MORGANS POINT    0730   74 76  170/  8/ 14 1012.2
MISSION/ARANSAS  0700   73                 1011.0
PORT O`CONNOR    0730   72     140/  6/  8 1011.0
PORT ARANSAS     0700   72 73  140/ 11/ 12 1009.9
MALAQUITE BEACH  0730   72 74  130/ 13/ 15 1009.9
BAFFIN BAY       0730   72 75  120/ 13/ 17 1009.3
PORT ISABEL      0730   74 75  150/ 12/ 14 1008.9
$$

GMZ080-GMZ150>470-270900-
OFFSHORE BUOY REPORTS

STATION/POSITION TIME  TEMP    WIND        PRES    WAVE
                       AIR SEA DIR/SP/G            HT/PER
                 (UTC) (F)     (DEG/KT/KT) (MB)    (FT/S)
20 E GALVESTON   0650   72 72  180/  8/ 10 1012.5    4/ 6
90 E PT ARANSAS  0650   74 72  160/ 19/ 21 1010.6    6/ 7
35 NE PT MANSFLD 0650   73     170/ 16/ 19 1008.9    6/ 7
200 E PT ISABEL  0650   76 77  150/ 17/ 19 1012.6    6/ 6
$$




USA.gov is the U.S. government's official web portal to all federal, state and local government web resources and services.